Wind_Speed
5 7 3 5 4 3 4 3 2 4 3 4 2 4 9 19 14 14 24 29 27 24 25 25 26 30 31 29 24 18 14 9 7 9 12 14 16 18 18 17 17 18 18 19
7 5 2 6 6 6 6 5 4 5 5 2 4 7 7 6 11 14 21 20 20 22 22 24 24 28 32 28 21 15 10 9 9 11 15 18 21 20 18 17 18 20 22 24
5 5 6 6 8 7 3 5 5 6 4 4 5 5 9 7 21 23 9 18 22 26 27 25 26 28 27 21 15 10 9 8 12 15 17 20 21 19 19 20 20 20 23 23
6 10 7 8 6 5 3 6 6 8 2 2 2 3 5 9 14 16 15 9 14 22 25 28 21 25 22 15 11 8 8 11 14 17 20 23 24 24 23 24 24 23 23 26
2 9 9 8 6 7 3 9 5 4 1 3 8 4 7 6 10 16 16 21 17 19 26 25 20 22 17 11 8 8 10 13 16 17 21 24 23 22 24 24 25 26 26 26
4 6 6 4 10 4 8 6 5 4 3 4 7 3 5 8 12 8 10 18 25 22 22 23 22 18 12 8 6 8 11 15 16 20 22 21 22 25 26 25 27 27 26 24
7 4 6 15 6 7 12 6 4 6 5 2 3 6 3 14 8 5 5 13 18 23 27 26 20 14 8 3 5 9 13 17 18 20 20 21 24 26 26 26 26 27 27 26
6 6 8 13 4 5 6 2 4 3 1 4 6 3 2 7 12 14 12 16 22 27 24 20 14 8 2 4 8 12 15 17 18 20 22 24 27 26 26 27 26 27 28 29
6 4 5 8 4 4 6 5 2 2 3 2 0 1 5 5 7 11 13 18 22 23 18 14 9 4 4 8 12 14 16 18 20 22 25 26 27 26 28 28 27 27 30 32
2 5 3 8 5 7 5 3 3 4 3 3 3 1 2 4 4 5 8 19 20 18 14 10 5 4 8 11 14 16 18 20 22 24 26 29 28 26 28 28 29 29 30 34
2 3 7 5 5 3 5 4 4 3 3 1 3 3 5 6 2 7 6 15 17 14 10 5 3 5 9 13 16 18 19 21 24 26 28 29 28 29 28 31 31 31 31 30
3 2 4 4 7 7 1 3 4 3 4 2 1 3 5 6 5 15 14 15 13 10 6 2 3 6 8 14 17 19 20 23 26 28 28 28 30 31 31 31 32 32 29 34
4 2 4 7 5 6 4 4 5 2 1 3 1 3 6 7 6 14 20 16 13 10 5 2 2 5 10 14 16 18 21 24 26 28 29 32 32 31 31 31 31 32 31 22
4 1 3 4 5 2 7 14 14 3 2 2 2 3 8 2 7 13 16 15 13 8 5 2 2 7 11 14 16 19 23 24 27 28 30 32 33 31 30 29 33 33 24 19
3 1 2 9 13 10 9 9 11 1 6 2 4 1 8 1 7 16 17 15 12 8 5 1 4 7 11 13 16 20 22 25 26 27 31 34 35 33 31 29 30 31 21 21
6 3 4 4 2 7 2 11 11 11 12 2 1 3 5 12 18 16 17 15 10 7 4 1 4 7 10 14 18 21 22 24 27 28 32 35 37 38 35 31 30 28 25 26
4 3 6 4 7 1 2 9 10 7 18 10 6 4 7 6 12 17 16 13 9 8 5 0 3 7 11 14 18 20 22 23 26 28 32 36 38 39 39 36 33 32 26 28
4 4 2 4 5 3 3 11 10 13 17 21 21 15 4 9 12 13 12 11 9 9 5 1 5 8 11 15 16 18 20 23 26 29 32 35 39 41 43 38 35 32 29 30
1 1 3 2 2 3 3 8 9 8 7 19 19 22 24 6 10 3 7 10 9 7 5 2 5 8 11 14 16 18 19 23 26 30 33 36 41 45 43 44 48 33 32 30
3 3 2 2 2 2 4 15 24 7 3 26 26 23 22 19 1 3 7 12 11 7 3 4 6 9 11 14 14 17 20 23 27 29 31 36 41 44 44 51 47 35 30 31
4 3 3 3 2 2 9 27 18 2 5 28 25 22 22 5 5 11 15 14 9 6 4 5 6 8 12 13 14 17 19 24 26 27 32 35 39 43 47 55 48 37 33 32
2 4 2 3 3 3 17 11 5 8 23 22 27 28 27 2 13 19 16 13 8 7 5 5 5 8 11 11 13 16 19 21 23 27 31 34 37 43 52 54 50 43 36 36
2 2 2 1 3 7 11 15 16 11 19 23 28 25 10 15 23 19 15 11 7 5 4 4 4 8 9 11 13 15 18 20 22 25 29 32 37 43 52 54 56 54 42 40
3 8 1 5 2 10 29 9 3 20 26 27 23 16 2 18 20 16 13 9 8 4 3 3 4 6 8 10 12 15 18 20 21 24 28 32 37 42 48 51 55 55 48 43
2 8 6 5 8 27 6 15 26 30 29 25 17 9 8 19 18 13 12 7 6 3 3 3 3 4 6 8 11 14 16 18 20 23 26 31 34 39 42 47 52 51 49 43
4 3 3 3 19 15 29 31 32 31 26 26 17 3 9 19 17 13 9 6 5 2 3 3 1 2 4 7 9 12 14 16 19 22 26 30 32 35 38 42 47 51 51 45
Wind_Direction
25 66 38 22 27 48 99 76 329 286 296 102 96 23 335 343 3 201 202 199 192 193 199 210 208 208 207 200 196 198 210 230 264 294 309 311 314 315 311 301 293 288 282 278
28 57 22 115 46 54 57 32 339 295 288 32 144 36 323 342 3 329 206 174 181 188 193 193 198 207 198 192 194 202 219 252 279 303 312 323 327 319 309 303 297 287 283 284
104 0 34 71 33 33 15 24 311 262 304 306 127 2 12 328 25 39 116 167 186 190 181 180 182 196 186 185 196 214 241 274 296 306 319 323 321 313 309 306 305 298 293 290
63 348 49 42 29 357 4 322 282 287 350 276 28 272 20 337 11 10 37 104 148 168 169 169 189 179 174 186 203 232 264 290 304 315 318 325 324 319 319 314 308 307 301 297
342 31 15 34 325 319 306 310 292 320 9 98 359 69 336 356 0 348 358 116 120 135 159 172 165 160 170 181 214 253 288 302 309 314 323 323 322 319 315 315 311 306 303 302
22 2 47 299 314 336 297 339 16 34 48 49 319 122 21 350 340 332 35 116 140 154 161 145 148 154 158 193 237 290 300 307 313 322 323 325 323 322 320 315 312 314 310 307
336 18 341 10 350 352 9 31 357 5 12 223 314 63 58 312 17 37 62 90 109 147 143 139 144 154 175 206 301 306 310 315 323 322 327 329 326 325 320 321 321 318 316 313
23 334 20 334 354 288 305 40 131 224 315 291 6 49 347 50 58 73 84 108 130 135 137 140 145 153 125 333 328 321 323 326 325 328 330 331 325 326 323 322 321 316 316 311
7 286 323 328 329 359 329 30 12 277 25 49 122 289 294 78 53 68 92 115 123 129 136 140 134 91 6 348 338 340 334 330 331 332 330 326 328 329 322 318 317 317 311 311
319 312 323 307 22 7 79 285 35 12 43 335 311 135 37 32 71 79 107 127 135 138 140 131 97 20 353 348 351 345 340 337 334 330 330 329 329 324 322 321 317 315 309 312
54 115 303 356 26 337 351 15 20 109 97 160 311 289 252 271 99 162 159 148 147 146 138 108 29 1 356 355 349 346 341 338 334 334 333 329 328 325 322 320 319 315 315 311
329 155 297 275 289 4 315 69 91 73 333 251 229 279 262 269 291 171 159 159 156 144 133 107 21 3 357 351 348 344 341 338 337 335 335 332 328 326 324 324 325 324 319 311
329 350 337 346 15 5 10 333 9 178 257 237 259 275 312 318 98 150 155 162 154 155 157 143 21 1 354 351 348 346 343 342 339 337 337 337 335 334 333 333 332 326 325 329
22 10 168 218 257 261 299 313 324 231 241 281 238 299 295 91 119 131 155 160 158 168 166 165 356 354 355 351 347 349 348 347 346 347 349 350 349 347 344 343 342 342 344 344
58 311 301 275 262 266 282 316 304 265 265 233 342 75 277 207 151 156 162 156 165 173 178 228 348 356 353 346 352 352 353 353 357 0 0 1 1 359 355 351 347 347 357 8
2 329 333 287 340 328 240 12 16 34 10 264 292 253 303 95 141 150 163 165 176 176 184 246 351 355 349 354 354 355 358 360 4 7 6 7 10 9 5 2 1 3 16 22
10 349 350 287 340 185 356 359 12 360 29 10 19 330 106 90 130 163 171 177 181 181 190 230 5 356 360 358 357 1 3 6 10 12 12 13 15 15 15 13 11 13 22 29
315 339 320 295 331 49 343 18 7 350 37 23 19 4 30 143 163 173 179 180 182 180 174 100 359 7 7 1 5 6 10 13 14 16 17 16 19 21 21 17 20 22 31 36
187 35 332 27 322 297 21 11 349 352 0 19 7 0 359 129 140 148 202 195 181 164 142 32 29 22 11 15 14 17 19 20 19 20 19 21 23 25 23 28 20 28 36 44
75 78 116 341 333 64 19 328 327 295 21 1 353 347 343 334 60 252 185 168 153 139 90 52 49 29 23 24 20 20 26 24 25 22 22 24 26 27 27 33 22 37 45 51
348 1 10 328 319 351 4 332 327 63 324 320 334 331 330 302 260 166 159 145 134 114 93 81 63 37 38 28 17 18 22 24 21 21 25 26 26 30 33 38 27 43 51 60
33 331 347 323 347 48 5 346 42 302 305 318 330 336 334 180 156 153 154 144 135 123 107 93 59 42 43 34 20 20 23 21 18 23 27 26 26 30 38 38 36 47 56 61
360 169 275 249 250 299 318 292 298 307 323 330 335 349 6 162 152 156 155 145 130 121 112 102 53 41 46 37 29 25 26 21 22 27 29 29 31 33 38 38 39 41 52 62
309 10 297 336 55 315 310 328 23 333 335 339 345 343 12 176 160 160 157 150 146 133 119 107 58 43 47 39 33 29 29 25 23 29 31 32 35 36 39 41 43 40 48 59
274 320 322 274 319 340 117 331 328 329 334 342 350 350 204 192 175 168 164 157 152 137 136 109 42 36 53 44 36 32 31 28 27 29 33 38 40 42 43 47 50 49 46 57
3 343 326 282 312 289 285 305 317 322 332 339 337 40 177 203 187 178 170 156 151 141 155 145 87 39 56 50 41 37 34 32 31 32 37 40 44 48 48 53 57 60 57 59
Height
1480 1489 1494 1490 1488 1487 1488 1492 1492 1486 1480 1484 1488 1487 1482 1474 1470 1469 1469 1473 1480 1484 1489 1493 1497 1499 1503 1506 1508 1509 1510 1511 1510 1509 1507 1504 1500 1497 1493 1490 1488 1486 1484 1482
1489 1493 1486 1485 1486 1488 1490 1496 1497 1489 1481 1481 1487 1490 1485 1479 1476 1468 1466 1475 1480 1485 1488 1491 1496 1498 1503 1507 1510 1510 1511 1511 1509 1507 1504 1500 1497 1493 1489 1486 1484 1481 1479 1477
1493 1491 1488 1486 1491 1493 1492 1497 1496 1495 1483 1479 1484 1492 1489 1481 1477 1473 1474 1477 1481 1483 1486 1492 1497 1500 1506 1510 1513 1513 1512 1510 1508 1504 1501 1498 1493 1489 1486 1483 1480 1477 1473 1471
1495 1494 1492 1493 1494 1494 1496 1489 1489 1486 1487 1498 1483 1504 1494 1491 1484 1481 1484 1484 1486 1487 1491 1495 1498 1503 1508 1513 1514 1513 1511 1509 1505 1502 1498 1494 1489 1484 1481 1477 1474 1471 1469 1465
1506 1503 1502 1500 1501 1495 1494 1488 1486 1483 1487 1491 1494 1504 1501 1496 1493 1489 1487 1486 1491 1494 1494 1497 1502 1508 1511 1514 1514 1513 1510 1506 1503 1499 1495 1491 1486 1481 1476 1473 1468 1463 1460 1457
1508 1504 1506 1506 1498 1496 1492 1489 1488 1490 1494 1515 1505 1507 1510 1506 1504 1497 1494 1492 1490 1497 1499 1503 1508 1511 1513 1514 1513 1511 1509 1505 1501 1497 1492 1488 1482 1477 1472 1466 1461 1458 1453 1450
1519 1511 1509 1506 1503 1497 1499 1502 1526 1519 1522 1527 1503 1506 1518 1509 1506 1504 1502 1501 1500 1499 1504 1507 1511 1513 1514 1514 1513 1511 1507 1503 1499 1494 1490 1485 1478 1473 1467 1462 1457 1451 1446 1443
1541 1527 1520 1517 1515 1513 1507 1505 1531 1533 1526 1516 1505 1517 1518 1512 1510 1508 1507 1506 1505 1507 1510 1513 1515 1516 1516 1515 1513 1509 1506 1502 1497 1492 1487 1481 1474 1470 1464 1458 1452 1446 1441 1435
1554 1537 1523 1519 1516 1513 1509 1517 1513 1515 1524 1528 1514 1522 1517 1512 1513 1513 1513 1512 1511 1513 1516 1518 1518 1518 1517 1515 1512 1508 1504 1500 1494 1488 1483 1477 1472 1467 1459 1452 1447 1441 1434 1428
1549 1557 1528 1522 1517 1516 1517 1515 1520 1530 1547 1557 1522 1514 1512 1513 1515 1517 1517 1517 1517 1518 1520 1520 1520 1519 1517 1514 1511 1507 1503 1497 1491 1485 1480 1474 1469 1462 1454 1447 1440 1434 1426 1420
1547 1555 1538 1527 1526 1528 1524 1528 1528 1531 1541 1545 1529 1530 1517 1513 1513 1517 1520 1520 1520 1521 1522 1522 1521 1520 1517 1514 1511 1507 1502 1496 1489 1484 1479 1471 1464 1456 1449 1441 1434 1426 1418 1410
1548 1552 1554 1538 1528 1527 1525 1530 1541 1547 1538 1533 1529 1523 1512 1511 1512 1514 1519 1521 1522 1524 1524 1524 1522 1520 1518 1515 1511 1506 1501 1495 1489 1482 1475 1468 1459 1451 1444 1436 1428 1419 1410 1400
1551 1556 1558 1541 1534 1534 1535 1532 1533 1539 1537 1528 1524 1524 1512 1511 1512 1516 1518 1522 1525 1525 1525 1524 1523 1522 1519 1515 1511 1506 1501 1495 1488 1480 1473 1464 1455 1446 1438 1430 1422 1412 1401 1394
1550 1554 1557 1565 1553 1550 1545 1535 1533 1529 1532 1526 1524 1522 1515 1515 1516 1520 1522 1524 1526 1527 1527 1526 1525 1523 1520 1516 1511 1507 1501 1494 1486 1479 1471 1462 1452 1443 1434 1427 1418 1407 1397 1391
1554 1559 1554 1550 1545 1543 1541 1538 1531 1526 1522 1524 1522 1525 1516 1516 1519 1521 1524 1527 1528 1529 1528 1528 1526 1524 1521 1516 1512 1507 1501 1493 1487 1480 1471 1462 1452 1443 1433 1424 1414 1404 1396 1389
1557 1559 1558 1549 1538 1536 1542 1537 1530 1526 1523 1523 1521 1523 1517 1517 1519 1524 1527 1530 1530 1530 1530 1529 1528 1525 1521 1517 1513 1508 1502 1495 1488 1481 1472 1463 1453 1443 1433 1422 1412 1403 1394 1387
1562 1562 1555 1549 1542 1540 1538 1542 1538 1536 1533 1528 1527 1522 1522 1524 1525 1527 1529 1531 1531 1532 1532 1531 1529 1526 1523 1519 1515 1509 1503 1497 1490 1484 1475 1465 1456 1445 1433 1422 1412 1403 1394 1387
1563 1562 1559 1554 1545 1544 1546 1546 1543 1541 1536 1533 1530 1530 1527 1527 1528 1529 1531 1532 1533 1534 1534 1533 1530 1528 1524 1521 1517 1512 1506 1500 1493 1487 1478 1470 1460 1448 1437 1426 1414 1404 1395 1387
1562 1564 1565 1563 1553 1550 1546 1549 1552 1549 1542 1543 1541 1537 1535 1532 1531 1533 1534 1534 1535 1536 1536 1534 1532 1530 1526 1523 1519 1515 1509 1503 1498 1490 1482 1474 1464 1452 1443 1428 1416 1406 1398 1391
1563 1565 1570 1562 1556 1556 1556 1554 1550 1549 1544 1544 1545 1542 1541 1537 1539 1535 1534 1536 1537 1538 1537 1536 1534 1532 1529 1526 1522 1518 1513 1508 1501 1495 1488 1479 1470 1460 1449 1432 1422 1412 1403 1397
1570 1567 1566 1565 1560 1558 1561 1555 1547 1549 1559 1550 1549 1545 1541 1539 1537 1535 1537 1539 1540 1540 1539 1538 1536 1534 1532 1530 1526 1522 1517 1510 1507 1502 1494 1486 1478 1468 1456 1439 1429 1418 1409 1403
1580 1575 1574 1569 1569 1565 1562 1556 1556 1562 1556 1552 1546 1542 1537 1533 1535 1537 1540 1541 1542 1541 1541 1540 1539 1536 1535 1533 1530 1526 1521 1516 1513 1507 1500 1492 1484 1474 1461 1449 1439 1426 1417 1410
1584 1580 1580 1576 1570 1564 1564 1562 1560 1560 1557 1551 1546 1541 1539 1538 1537 1540 1542 1543 1544 1544 1543 1543 1542 1540 1538 1536 1533 1530 1527 1522 1518 1513 1506 1500 1491 1480 1467 1458 1445 1435 1426 1418
1579 1577 1577 1574 1566 1564 1558 1558 1559 1557 1554 1550 1546 1543 1541 1542 1541 1542 1544 1545 1546 1546 1546 1545 1544 1543 1542 1539 1537 1534 1532 1527 1524 1519 1513 1506 1498 1488 1478 1469 1456 1447 1437 1429
1584 1580 1578 1572 1566 1557 1553 1555 1556 1551 1550 1547 1544 1542 1540 1544 1544 1545 1546 1547 1548 1548 1548 1548 1547 1546 1545 1543 1541 1539 1537 1533 1530 1526 1520 1514 1507 1498 1491 1481 1470 1461 1452 1444
1582 1581 1577 1572 1570 1571 1559 1553 1552 1549 1545 1544 1542 1540 1541 1544 1546 1547 1548 1549 1550 1550 1550 1550 1550 1549 1549 1547 1545 1543 1541 1539 1536 1532 1527 1522 1517 1510 1503 1496 1488 1480 1471 1461